,,PressureMeas_1m,,PRMeasQMR101_1,,RHStat155_1m_1,,SRMeasQMS101R_1m,,TAStat155_1m_1,,GenWind_1,,GenWind_1,
2018-08-07, 07:00:06,VALID,916.96,VALID,0.0,VALID,99.253,VALID,28.986,VALID,19.416,INVALID,360.0,VALID,0.0,
2018-08-07, 07:01:06,VALID,916.968,VALID,0.0,VALID,99.282,VALID,28.837,VALID,19.469,INVALID,360.0,VALID,0.0,
2018-08-07, 07:02:06,VALID,916.963,VALID,0.0,VALID,99.267,VALID,29.406,VALID,19.487,INVALID,360.0,VALID,0.0,
2018-08-07, 07:03:06,VALID,916.927,VALID,0.0,VALID,99.252,VALID,30.695,VALID,19.467,INVALID,360.0,VALID,0.0,
2018-08-07, 07:04:06,VALID,916.901,VALID,0.0,VALID,99.248,VALID,32.385,VALID,19.465,INVALID,360.0,VALID,0.0,
2018-08-07, 07:05:06,VALID,916.877,VALID,0.0,VALID,99.247,VALID,33.964,VALID,19.461,INVALID,360.0,VALID,0.0,
2018-08-07, 07:06:06,VALID,916.877,VALID,0.0,VALID,99.232,VALID,34.393,VALID,19.446,INVALID,360.0,VALID,0.0,
2018-08-07, 07:07:06,VALID,916.925,VALID,0.0,VALID,99.252,VALID,32.947,VALID,19.452,INVALID,360.0,VALID,0.0,
2018-08-07, 07:08:06,VALID,916.996,VALID,0.0,VALID,99.248,VALID,29.984,VALID,19.469,INVALID,360.0,VALID,0.0,
2018-08-07, 07:09:06,VALID,917.037,VALID,0.0,VALID,99.258,VALID,26.84,VALID,19.459,INVALID,360.0,VALID,0.0,
2018-08-07, 07:10:06,VALID,917.088,VALID,0.0,VALID,99.242,VALID,25.263,VALID,19.442,INVALID,360.0,VALID,0.0,
2018-08-07, 07:11:06,VALID,917.13,VALID,0.0,VALID,99.238,VALID,25.066,VALID,19.436,INVALID,360.0,VALID,0.0,
2018-08-07, 07:12:06,VALID,917.163,VALID,0.0,VALID,99.255,VALID,25.604,VALID,19.433,INVALID,360.0,VALID,0.0,
2018-08-07, 07:13:06,VALID,917.18,VALID,0.0,VALID,99.25,VALID,26.305,VALID,19.438,INVALID,360.0,VALID,0.0,
2018-08-07, 07:14:06,VALID,917.189,VALID,0.0,VALID,99.237,VALID,29.978,VALID,19.432,INVALID,360.0,VALID,0.0,
2018-08-07, 07:15:06,VALID,917.148,VALID,0.0,VALID,99.239,VALID,35.696,VALID,19.423,INVALID,360.0,VALID,0.0,
2018-08-07, 07:16:06,VALID,917.076,VALID,0.0,VALID,99.262,VALID,42.204,VALID,19.46,INVALID,360.0,VALID,0.0,
2018-08-07, 07:17:06,VALID,917.071,VALID,0.0,VALID,99.266,VALID,46.47,VALID,19.488,INVALID,360.0,VALID,0.0,
2018-08-07, 07:18:06,VALID,917.136,VALID,0.0,VALID,99.273,VALID,45.148,VALID,19.521,INVALID,360.0,VALID,0.0,
2018-08-07, 07:19:06,VALID,917.195,VALID,0.0,VALID,99.23,VALID,38.95,VALID,19.467,INVALID,360.0,VALID,0.0,
2018-08-07, 07:20:06,VALID,917.229,VALID,0.0,VALID,99.248,VALID,41.597,VALID,19.457,INVALID,360.0,VALID,0.0,
2018-08-07, 07:21:06,VALID,917.226,VALID,0.0,VALID,99.241,VALID,43.517,VALID,19.452,INVALID,360.0,VALID,0.0,
2018-08-07, 07:22:06,VALID,917.249,VALID,0.0,VALID,99.248,VALID,45.74,VALID,19.492,INVALID,360.0,VALID,0.0,
2018-08-07, 07:23:06,VALID,917.25,VALID,0.0,VALID,99.287,VALID,49.745,VALID,19.541,INVALID,360.0,VALID,0.0,
2018-08-07, 07:24:06,VALID,917.261,VALID,0.0,VALID,99.263,VALID,51.912,VALID,19.581,INVALID,360.0,VALID,0.0,
2018-08-07, 07:25:06,VALID,917.239,VALID,0.0,VALID,99.247,VALID,52.103,VALID,19.585,INVALID,360.0,VALID,0.0,
2018-08-07, 07:26:06,VALID,917.241,VALID,0.0,VALID,99.247,VALID,49.927,VALID,19.534,INVALID,360.0,VALID,0.0,
2018-08-07, 07:27:06,VALID,917.261,VALID,0.0,VALID,99.218,VALID,48.881,VALID,19.471,INVALID,360.0,VALID,0.0,
2018-08-07, 07:28:06,VALID,917.3,VALID,0.0,VALID,99.243,VALID,47.218,VALID,19.477,INVALID,360.0,VALID,0.0,
2018-08-07, 07:29:06,VALID,917.355,VALID,0.0,VALID,99.26,VALID,43.72,VALID,19.56,INVALID,360.0,VALID,0.0,
2018-08-07, 07:30:06,VALID,917.362,VALID,0.0,VALID,99.26,VALID,43.537,VALID,19.592,INVALID,360.0,VALID,0.0,
2018-08-07, 07:31:06,VALID,917.339,VALID,0.0,VALID,99.258,VALID,43.52,VALID,19.561,INVALID,360.0,VALID,0.0,
2018-08-07, 07:32:06,VALID,917.364,VALID,0.0,VALID,99.271,VALID,41.934,VALID,19.571,INVALID,360.0,VALID,0.0,
2018-08-07, 07:33:06,VALID,917.374,VALID,0.0,VALID,99.241,VALID,41.859,VALID,19.562,INVALID,360.0,VALID,0.0,
2018-08-07, 07:34:06,VALID,917.388,VALID,0.0,VALID,99.254,VALID,41.527,VALID,19.603,INVALID,360.0,VALID,0.0,
2018-08-07, 07:35:06,VALID,917.394,VALID,0.0,VALID,99.248,VALID,43.416,VALID,19.623,INVALID,360.0,VALID,0.0,
2018-08-07, 07:36:06,VALID,917.414,VALID,0.0,VALID,99.27,VALID,44.496,VALID,19.651,INVALID,360.0,VALID,0.0,
2018-08-07, 07:37:06,VALID,917.465,VALID,0.0,VALID,99.236,VALID,43.811,VALID,19.626,INVALID,360.0,VALID,0.0,
2018-08-07, 07:38:06,VALID,917.5,VALID,0.0,VALID,99.239,VALID,43.787,VALID,19.547,INVALID,360.0,VALID,0.0,
2018-08-07, 07:39:06,VALID,917.499,VALID,0.0,VALID,99.253,VALID,44.533,VALID,19.573,INVALID,360.0,VALID,0.0,
2018-08-07, 07:40:06,VALID,917.494,VALID,0.0,VALID,99.266,VALID,45.006,VALID,19.567,INVALID,360.0,VALID,0.0,
2018-08-07, 07:41:06,VALID,917.476,VALID,0.0,VALID,99.261,VALID,47.119,VALID,19.573,INVALID,360.0,VALID,0.0,
2018-08-07, 07:42:06,VALID,917.453,VALID,0.0,VALID,99.231,VALID,51.13,VALID,19.505,INVALID,360.0,VALID,0.0,
2018-08-07, 07:43:06,VALID,917.471,VALID,0.0,VALID,99.239,VALID,55.866,VALID,19.48,INVALID,360.0,VALID,0.0,
2018-08-07, 07:44:06,VALID,917.498,VALID,0.0,VALID,99.239,VALID,57.227,VALID,19.526,INVALID,360.0,VALID,0.0,
2018-08-07, 07:45:06,VALID,917.536,VALID,0.0,VALID,99.247,VALID,56.962,VALID,19.523,INVALID,360.0,VALID,0.0,
2018-08-07, 07:46:06,VALID,917.573,VALID,0.0,VALID,99.246,VALID,54.587,VALID,19.563,INVALID,360.0,VALID,0.0,
2018-08-07, 07:47:06,VALID,917.58,VALID,0.0,VALID,99.265,VALID,50.673,VALID,19.605,INVALID,360.0,VALID,0.0,
2018-08-07, 07:48:06,VALID,917.585,VALID,0.0,VALID,99.261,VALID,50.111,VALID,19.635,INVALID,360.0,VALID,0.0,
2018-08-07, 07:49:06,VALID,917.578,VALID,0.0,VALID,99.248,VALID,54.814,VALID,19.591,INVALID,360.0,VALID,0.0,
2018-08-07, 07:50:06,VALID,917.582,VALID,0.0,VALID,99.242,VALID,61.873,VALID,19.576,INVALID,360.0,VALID,0.0,
2018-08-07, 07:51:06,VALID,917.593,VALID,0.0,VALID,99.265,VALID,64.715,VALID,19.636,INVALID,360.0,VALID,0.0,
2018-08-07, 07:52:06,VALID,917.634,VALID,0.0,VALID,99.244,VALID,61.168,VALID,19.578,INVALID,360.0,VALID,0.0,
2018-08-07, 07:53:06,VALID,917.665,VALID,0.0,VALID,99.245,VALID,54.926,VALID,19.563,INVALID,360.0,VALID,0.0,
2018-08-07, 07:54:06,VALID,917.689,VALID,0.0,VALID,99.241,VALID,54.782,VALID,19.545,INVALID,360.0,VALID,0.0,
2018-08-07, 07:55:06,VALID,917.682,VALID,0.0,VALID,99.231,VALID,63.568,VALID,19.553,INVALID,360.0,VALID,0.0,
2018-08-07, 07:56:06,VALID,917.705,VALID,0.0,VALID,99.237,VALID,68.653,VALID,19.534,INVALID,360.0,VALID,0.0,
2018-08-07, 07:57:06,VALID,917.735,VALID,0.0,VALID,99.237,VALID,64.876,VALID,19.562,INVALID,360.0,VALID,0.0,
2018-08-07, 07:58:06,VALID,917.731,VALID,0.0,VALID,99.248,VALID,63.106,VALID,19.562,INVALID,360.0,VALID,0.0,
2018-08-07, 07:59:06,VALID,917.733,VALID,0.0,VALID,99.252,VALID,61.777,VALID,19.636,INVALID,360.0,VALID,0.0,
2018-08-07, 08:00:06,VALID,917.77,VALID,0.0,VALID,99.255,VALID,58.01,VALID,19.639,INVALID,360.0,VALID,0.0,
2018-08-07, 08:01:06,VALID,917.81,VALID,0.0,VALID,99.249,VALID,56.235,VALID,19.611,INVALID,360.0,VALID,0.0,
2018-08-07, 08:02:06,VALID,917.812,VALID,0.0,VALID,99.225,VALID,59.013,VALID,19.569,INVALID,360.0,VALID,0.0,
2018-08-07, 08:03:06,VALID,917.791,VALID,0.0,VALID,99.233,VALID,57.911,VALID,19.544,INVALID,360.0,VALID,0.0,
2018-08-07, 08:04:06,VALID,917.813,VALID,0.0,VALID,99.224,VALID,56.836,VALID,19.52,INVALID,360.0,VALID,0.0,
2018-08-07, 08:05:06,VALID,917.807,VALID,0.0,VALID,99.237,VALID,62.067,VALID,19.55,INVALID,360.0,VALID,0.0,
2018-08-07, 08:06:06,VALID,917.745,VALID,0.0,VALID,99.256,VALID,67.867,VALID,19.595,INVALID,360.0,VALID,0.0,
2018-08-07, 08:07:06,VALID,917.732,VALID,0.0,VALID,99.286,VALID,69.768,VALID,19.63,INVALID,360.0,VALID,0.0,
2018-08-07, 08:08:06,VALID,917.733,VALID,0.0,VALID,99.263,VALID,72.596,VALID,19.695,INVALID,360.0,VALID,0.0,
2018-08-07, 08:09:06,VALID,917.733,VALID,0.0,VALID,99.27,VALID,72.996,VALID,19.71,INVALID,360.0,VALID,0.0,
2018-08-07, 08:10:06,VALID,917.735,VALID,0.0,VALID,99.262,VALID,78.793,VALID,19.759,INVALID,360.0,VALID,0.0,
2018-08-07, 08:11:06,VALID,917.739,VALID,0.0,VALID,99.255,VALID,76.456,VALID,19.736,INVALID,360.0,VALID,0.0,
2018-08-07, 08:12:06,VALID,917.789,VALID,0.0,VALID,99.236,VALID,69.828,VALID,19.651,INVALID,360.0,VALID,0.0,
2018-08-07, 08:13:06,VALID,917.797,VALID,0.0,VALID,99.248,VALID,60.874,VALID,19.65,INVALID,360.0,VALID,0.0,
2018-08-07, 08:14:06,VALID,917.839,VALID,0.0,VALID,99.272,VALID,53.89,VALID,19.695,INVALID,360.0,VALID,0.0,
2018-08-07, 08:15:06,VALID,917.858,VALID,0.0,VALID,99.271,VALID,52.116,VALID,19.747,INVALID,360.0,VALID,0.0,
2018-08-07, 08:16:06,VALID,917.875,VALID,0.0,VALID,99.254,VALID,59.274,VALID,19.794,INVALID,360.0,VALID,0.0,
2018-08-07, 08:17:06,VALID,917.89,VALID,0.0,VALID,99.271,VALID,65.569,VALID,19.813,INVALID,360.0,VALID,0.0,
2018-08-07, 08:18:06,VALID,917.916,VALID,0.0,VALID,99.242,VALID,64.973,VALID,19.791,INVALID,360.0,VALID,0.0,
2018-08-07, 08:19:06,VALID,917.922,VALID,0.0,VALID,99.255,VALID,63.77,VALID,19.809,INVALID,360.0,VALID,0.0,
2018-08-07, 08:20:06,VALID,917.921,VALID,0.0,VALID,99.248,VALID,58.857,VALID,19.78,INVALID,360.0,VALID,0.0,
2018-08-07, 08:21:06,VALID,917.946,VALID,0.0,VALID,99.205,VALID,50.494,VALID,19.654,INVALID,360.0,VALID,0.0,
2018-08-07, 08:22:06,VALID,917.964,VALID,0.0,VALID,99.204,VALID,46.055,VALID,19.608,INVALID,360.0,VALID,0.0,
2018-08-07, 08:23:06,VALID,917.995,VALID,0.0,VALID,99.221,VALID,48.148,VALID,19.603,INVALID,360.0,VALID,0.0,
2018-08-07, 08:24:06,VALID,918.014,VALID,0.0,VALID,99.225,VALID,53.941,VALID,19.608,INVALID,360.0,VALID,0.0,
2018-08-07, 08:25:06,VALID,918.019,VALID,0.0,VALID,99.255,VALID,56.202,VALID,19.645,INVALID,360.0,VALID,0.0,
2018-08-07, 08:26:06,VALID,918.025,VALID,0.0,VALID,99.263,VALID,61.333,VALID,19.695,INVALID,360.0,VALID,0.0,
2018-08-07, 08:27:06,VALID,918.06,VALID,0.0,VALID,99.269,VALID,73.214,VALID,19.784,INVALID,360.0,VALID,0.0,
2018-08-07, 08:28:06,VALID,918.074,VALID,0.0,VALID,99.27,VALID,91.775,VALID,19.847,INVALID,360.0,VALID,0.0,
2018-08-07, 08:29:06,VALID,918.067,VALID,0.0,VALID,99.264,VALID,111.333,VALID,19.819,INVALID,360.0,VALID,0.0,
2018-08-07, 08:30:06,VALID,918.072,VALID,0.0,VALID,99.238,VALID,127.943,VALID,19.835,INVALID,360.0,VALID,0.0,
2018-08-07, 08:31:06,VALID,918.124,VALID,0.0,VALID,99.266,VALID,146.138,VALID,19.891,INVALID,360.0,VALID,0.0,
2018-08-07, 08:32:06,VALID,918.139,VALID,0.0,VALID,99.255,VALID,162.705,VALID,19.947,INVALID,360.0,VALID,0.0,
2018-08-07, 08:33:06,VALID,918.091,VALID,0.0,VALID,99.277,VALID,197.979,VALID,19.995,INVALID,360.0,VALID,0.0,
2018-08-07, 08:34:06,VALID,918.064,VALID,0.0,VALID,99.209,VALID,245.466,VALID,19.933,INVALID,360.0,VALID,0.0,
2018-08-07, 08:35:06,VALID,918.068,VALID,0.0,VALID,99.238,VALID,246.199,VALID,19.973,INVALID,360.0,VALID,0.0,
2018-08-07, 08:36:06,VALID,918.074,VALID,0.0,VALID,99.236,VALID,277.761,VALID,20.031,INVALID,360.0,VALID,0.0,
2018-08-07, 08:37:06,VALID,918.077,VALID,0.0,VALID,99.251,VALID,307.965,VALID,20.108,INVALID,360.0,VALID,0.0,
2018-08-07, 08:38:06,VALID,918.093,VALID,0.0,VALID,99.234,VALID,303.933,VALID,20.161,INVALID,360.0,VALID,0.0,
2018-08-07, 08:39:06,VALID,918.084,VALID,0.0,VALID,99.235,VALID,268.259,VALID,20.257,INVALID,360.0,VALID,0.0,
2018-08-07, 08:40:06,VALID,918.094,VALID,0.0,VALID,99.259,VALID,281.781,VALID,20.298,INVALID,360.0,VALID,0.0,
2018-08-07, 08:41:06,VALID,918.094,VALID,0.0,VALID,99.225,VALID,291.53,VALID,20.357,INVALID,360.0,VALID,0.0,
2018-08-07, 08:42:06,VALID,918.098,VALID,0.0,VALID,99.148,VALID,277.07,VALID,20.223,INVALID,360.0,VALID,0.0,
2018-08-07, 08:43:06,VALID,918.128,VALID,0.0,VALID,99.188,VALID,262.488,VALID,20.217,INVALID,360.0,VALID,0.0,
2018-08-07, 08:44:06,VALID,918.152,VALID,0.0,VALID,99.186,VALID,291.953,VALID,20.226,INVALID,360.0,VALID,0.0,
2018-08-07, 08:45:06,VALID,918.17,VALID,0.0,VALID,99.215,VALID,276.372,VALID,20.302,INVALID,360.0,VALID,0.0,
2018-08-07, 08:46:06,VALID,918.184,VALID,0.0,VALID,99.182,VALID,220.661,VALID,20.311,INVALID,360.0,VALID,0.0,
2018-08-07, 08:47:06,VALID,918.198,VALID,0.0,VALID,99.242,VALID,210.448,VALID,20.464,INVALID,360.0,VALID,0.0,
2018-08-07, 08:48:06,VALID,918.166,VALID,0.0,VALID,99.204,VALID,216.048,VALID,20.39,INVALID,360.0,VALID,0.0,
2018-08-07, 08:49:06,VALID,918.175,VALID,0.0,VALID,99.102,VALID,245.372,VALID,20.238,INVALID,360.0,VALID,0.0,
2018-08-07, 08:50:06,VALID,918.181,VALID,0.0,VALID,99.193,VALID,241.936,VALID,20.353,INVALID,360.0,VALID,0.0,
2018-08-07, 08:51:06,VALID,918.185,VALID,0.0,VALID,99.143,VALID,262.27,VALID,20.315,INVALID,360.0,VALID,0.0,
2018-08-07, 08:52:06,VALID,918.194,VALID,0.0,VALID,99.188,VALID,286.912,VALID,20.361,INVALID,360.0,VALID,0.0,
2018-08-07, 08:53:06,VALID,918.174,VALID,0.0,VALID,99.198,VALID,342.272,VALID,20.361,INVALID,360.0,VALID,0.0,
2018-08-07, 08:54:06,VALID,918.184,VALID,0.0,VALID,99.174,VALID,422.911,VALID,20.414,INVALID,360.0,VALID,0.0,
2018-08-07, 08:55:06,VALID,918.182,VALID,0.0,VALID,99.221,VALID,346.944,VALID,20.58,INVALID,360.0,VALID,0.0,
2018-08-07, 08:56:06,VALID,918.167,VALID,0.0,VALID,99.231,VALID,355.727,VALID,20.739,INVALID,360.0,VALID,0.0,
2018-08-07, 08:57:06,VALID,918.172,VALID,0.0,VALID,99.173,VALID,304.336,VALID,20.687,INVALID,360.0,VALID,0.0,
2018-08-07, 08:58:06,VALID,918.192,VALID,0.0,VALID,99.217,VALID,304.97,VALID,20.823,INVALID,360.0,VALID,0.0,
2018-08-07, 08:59:06,VALID,918.174,VALID,0.0,VALID,99.135,VALID,455.842,VALID,20.702,INVALID,360.0,VALID,0.0,
2018-08-07, 09:00:06,VALID,918.166,VALID,0.0,VALID,99.082,VALID,376.3,VALID,20.646,INVALID,360.0,VALID,0.0,
2018-08-07, 09:01:06,VALID,918.153,VALID,0.0,VALID,99.179,VALID,462.259,VALID,20.835,INVALID,360.0,VALID,0.038,
2018-08-07, 09:02:06,VALID,918.179,VALID,0.0,VALID,99.2,VALID,410.858,VALID,20.951,VALID,28.0,VALID,0.62,
2018-08-07, 09:03:06,VALID,918.17,VALID,0.0,VALID,99.114,VALID,482.382,VALID,20.915,VALID,28.0,VALID,0.828,
2018-08-07, 09:04:06,VALID,918.14,VALID,0.0,VALID,99.107,VALID,559.468,VALID,20.951,VALID,32.0,VALID,0.313,
2018-08-07, 09:05:06,VALID,918.128,VALID,0.0,VALID,99.153,VALID,524.591,VALID,21.093,INVALID,360.0,VALID,0.043,
2018-08-07, 09:06:06,VALID,918.108,VALID,0.0,VALID,99.13,VALID,425.616,VALID,21.062,INVALID,360.0,VALID,0.0,
2018-08-07, 09:07:06,VALID,918.096,VALID,0.0,VALID,99.124,VALID,316.748,VALID,21.103,INVALID,360.0,VALID,0.0,
2018-08-07, 09:08:06,VALID,918.08,VALID,0.0,VALID,99.175,VALID,326.236,VALID,21.267,VALID,33.0,VALID,1.222,
2018-08-07, 09:09:06,VALID,918.077,VALID,0.0,VALID,99.153,VALID,488.278,VALID,21.289,VALID,31.0,VALID,1.022,
2018-08-07, 09:10:06,VALID,918.088,VALID,0.0,VALID,99.075,VALID,536.113,VALID,21.271,VALID,31.0,VALID,0.851,
2018-08-07, 09:11:06,VALID,918.081,VALID,0.0,VALID,99.061,VALID,592.5,VALID,21.28,VALID,29.0,VALID,0.902,
2018-08-07, 09:12:06,VALID,918.085,VALID,0.0,VALID,99.06,VALID,423.706,VALID,21.284,VALID,14.0,VALID,1.367,
2018-08-07, 09:13:06,VALID,918.098,VALID,0.0,VALID,98.821,VALID,340.887,VALID,20.847,VALID,356.0,VALID,0.784,
2018-08-07, 09:14:06,VALID,918.101,VALID,0.0,VALID,98.926,VALID,513.519,VALID,20.866,VALID,25.0,VALID,0.774,
2018-08-07, 09:15:06,VALID,918.099,VALID,0.0,VALID,99.058,VALID,465.68,VALID,21.042,VALID,31.0,VALID,1.159,
2018-08-07, 09:16:06,VALID,918.075,VALID,0.0,VALID,99.039,VALID,527.644,VALID,21.143,VALID,37.0,VALID,0.886,
2018-08-07, 09:17:06,VALID,918.052,VALID,0.0,VALID,99.109,VALID,650.899,VALID,21.374,VALID,28.0,VALID,0.691,
2018-08-07, 09:18:06,VALID,918.046,VALID,0.0,VALID,99.023,VALID,538.544,VALID,21.209,VALID,358.0,VALID,0.672,
2018-08-07, 09:19:06,VALID,918.055,VALID,0.0,VALID,98.958,VALID,358.068,VALID,21.157,VALID,2.0,VALID,0.893,
2018-08-07, 09:20:06,VALID,918.063,VALID,0.0,VALID,98.947,VALID,387.26,VALID,21.175,INVALID,360.0,VALID,0.236,
2018-08-07, 09:21:06,VALID,918.041,VALID,0.0,VALID,99.079,VALID,531.141,VALID,21.428,VALID,29.0,VALID,0.793,
2018-08-07, 09:22:06,VALID,918.029,VALID,0.0,VALID,98.936,VALID,403.346,VALID,21.395,VALID,7.0,VALID,0.295,
2018-08-07, 09:23:06,VALID,917.983,VALID,0.0,VALID,98.945,VALID,396.725,VALID,21.444,VALID,28.0,VALID,0.32,
2018-08-07, 09:24:06,VALID,917.941,VALID,0.0,VALID,98.783,VALID,548.766,VALID,21.238,VALID,12.0,VALID,0.646,
2018-08-07, 09:25:06,VALID,917.889,VALID,0.0,VALID,98.722,VALID,692.732,VALID,21.291,VALID,33.0,VALID,1.299,
2018-08-07, 09:26:06,VALID,917.848,VALID,0.0,VALID,98.641,VALID,709.578,VALID,21.323,VALID,33.0,VALID,0.387,
2018-08-07, 09:27:06,VALID,917.819,VALID,0.0,VALID,98.739,VALID,586.578,VALID,21.446,VALID,2.0,VALID,0.34,
2018-08-07, 09:28:06,VALID,917.819,VALID,0.0,VALID,98.397,VALID,610.634,VALID,21.373,VALID,35.0,VALID,1.077,
2018-08-07, 09:29:06,VALID,917.813,VALID,0.0,VALID,97.938,VALID,473.911,VALID,21.321,VALID,30.0,VALID,1.115,
2018-08-07, 09:30:06,VALID,917.812,VALID,0.0,VALID,97.614,VALID,431.158,VALID,21.285,VALID,17.0,VALID,0.91,
2018-08-07, 09:31:06,VALID,917.802,VALID,0.0,VALID,97.435,VALID,523.144,VALID,21.302,VALID,7.0,VALID,0.498,
2018-08-07, 09:32:06,VALID,917.777,VALID,0.0,VALID,97.587,VALID,589.711,VALID,21.5,VALID,40.0,VALID,0.705,
2018-08-07, 09:33:06,VALID,917.754,VALID,0.0,VALID,97.501,VALID,476.655,VALID,21.631,VALID,40.0,VALID,2.198,
2018-08-07, 09:34:06,VALID,917.773,VALID,0.0,VALID,96.601,VALID,439.782,VALID,21.642,VALID,36.0,VALID,0.848,
2018-08-07, 09:35:06,VALID,917.772,VALID,0.0,VALID,97.23,VALID,500.335,VALID,21.824,VALID,36.0,VALID,0.539,
2018-08-07, 09:36:06,VALID,917.761,VALID,0.0,VALID,96.447,VALID,584.424,VALID,21.77,VALID,357.0,VALID,0.848,
2018-08-07, 09:37:06,VALID,917.732,VALID,0.0,VALID,95.153,VALID,532.378,VALID,21.587,VALID,357.0,VALID,0.258,
2018-08-07, 09:38:06,VALID,917.705,VALID,0.0,VALID,95.678,VALID,396.568,VALID,21.614,VALID,19.0,VALID,0.504,
2018-08-07, 09:39:06,VALID,917.687,VALID,0.0,VALID,95.38,VALID,376.797,VALID,21.653,VALID,28.0,VALID,0.353,
2018-08-07, 09:40:06,VALID,917.678,VALID,0.0,VALID,94.626,VALID,549.641,VALID,21.626,INVALID,360.0,VALID,0.0,
2018-08-07, 09:41:06,VALID,917.667,VALID,0.0,VALID,95.773,VALID,568.276,VALID,21.8,INVALID,360.0,VALID,0.091,
2018-08-07, 09:42:06,VALID,917.637,VALID,0.0,VALID,95.155,VALID,475.111,VALID,21.928,VALID,352.0,VALID,0.333,
2018-08-07, 09:43:06,VALID,917.599,VALID,0.0,VALID,93.601,VALID,428.306,VALID,21.944,VALID,7.0,VALID,0.413,
2018-08-07, 09:44:06,VALID,917.563,VALID,0.0,VALID,92.759,VALID,332.045,VALID,21.921,VALID,42.0,VALID,0.248,
2018-08-07, 09:45:06,VALID,917.528,VALID,0.0,VALID,93.513,VALID,319.203,VALID,22.042,VALID,36.0,VALID,0.576,
2018-08-07, 09:46:06,VALID,917.517,VALID,0.0,VALID,93.298,VALID,425.397,VALID,22.159,VALID,38.0,VALID,0.475,
2018-08-07, 09:47:06,VALID,917.489,VALID,0.0,VALID,92.514,VALID,620.605,VALID,22.241,VALID,37.0,VALID,0.609,
2018-08-07, 09:48:06,VALID,917.461,VALID,0.0,VALID,91.916,VALID,585.04,VALID,22.26,VALID,29.0,VALID,0.793,
2018-08-07, 09:49:06,VALID,917.459,VALID,0.0,VALID,91.532,VALID,561.707,VALID,22.231,VALID,32.0,VALID,0.609,
2018-08-07, 09:50:06,VALID,917.448,VALID,0.0,VALID,91.862,VALID,561.115,VALID,22.171,VALID,23.0,VALID,0.489,
2018-08-07, 09:51:06,VALID,917.439,VALID,0.0,VALID,92.648,VALID,556.191,VALID,22.267,VALID,27.0,VALID,0.387,
2018-08-07, 09:52:06,VALID,917.427,VALID,0.0,VALID,92.073,VALID,519.914,VALID,22.352,VALID,28.0,VALID,0.899,
2018-08-07, 09:53:06,VALID,917.401,VALID,0.0,VALID,92.456,VALID,434.871,VALID,22.372,VALID,30.0,VALID,0.5,
2018-08-07, 09:54:06,VALID,917.406,VALID,0.0,VALID,92.761,VALID,383.02,VALID,22.448,VALID,11.0,VALID,1.253,
2018-08-07, 09:55:06,VALID,917.403,VALID,0.0,VALID,91.113,VALID,438.033,VALID,22.44,VALID,24.0,VALID,1.147,
2018-08-07, 09:56:06,VALID,917.409,VALID,0.0,VALID,91.434,VALID,437.787,VALID,22.41,VALID,22.0,VALID,0.818,
2018-08-07, 09:57:06,VALID,917.422,VALID,0.0,VALID,90.618,VALID,325.527,VALID,22.351,VALID,9.0,VALID,0.693,
2018-08-07, 09:58:06,VALID,917.421,VALID,0.0,VALID,91.67,VALID,351.533,VALID,22.384,VALID,30.0,VALID,1.114,
2018-08-07, 09:59:06,VALID,917.403,VALID,0.0,VALID,92.34,VALID,494.236,VALID,22.375,VALID,35.0,VALID,1.198,
2018-08-07, 10:00:06,VALID,917.4,VALID,0.0,VALID,93.667,VALID,615.574,VALID,22.465,VALID,33.0,VALID,0.79,
2018-08-07, 10:01:06,VALID,917.361,VALID,0.0,VALID,92.299,VALID,551.664,VALID,22.508,VALID,26.0,VALID,1.594,
2018-08-07, 10:02:06,VALID,917.361,VALID,0.0,VALID,91.262,VALID,530.628,VALID,22.381,VALID,20.0,VALID,1.423,
2018-08-07, 10:03:06,VALID,917.328,VALID,0.0,VALID,90.745,VALID,532.432,VALID,22.324,VALID,12.0,VALID,1.569,
2018-08-07, 10:04:06,VALID,917.278,VALID,0.0,VALID,90.715,VALID,663.968,VALID,22.268,VALID,34.0,VALID,1.904,
2018-08-07, 10:05:06,VALID,917.259,VALID,0.0,VALID,91.624,VALID,634.929,VALID,22.202,VALID,39.0,VALID,1.172,
2018-08-07, 10:06:06,VALID,917.244,VALID,0.0,VALID,93.326,VALID,513.729,VALID,22.361,VALID,36.0,VALID,1.311,
2018-08-07, 10:07:06,VALID,917.235,VALID,0.0,VALID,93.821,VALID,422.6,VALID,22.692,VALID,26.0,VALID,1.172,
2018-08-07, 10:08:06,VALID,917.231,VALID,0.0,VALID,89.897,VALID,598.188,VALID,22.795,VALID,33.0,VALID,0.817,
2018-08-07, 10:09:06,VALID,917.238,VALID,0.0,VALID,88.673,VALID,741.25,VALID,22.731,VALID,2.0,VALID,0.965,
2018-08-07, 10:10:06,VALID,917.231,VALID,0.0,VALID,88.581,VALID,793.796,VALID,22.644,VALID,1.0,VALID,0.25,
2018-08-07, 10:11:06,VALID,917.189,VALID,0.0,VALID,90.019,VALID,769.155,VALID,22.829,VALID,23.0,VALID,1.947,
2018-08-07, 10:12:06,VALID,917.209,VALID,0.0,VALID,90.561,VALID,872.089,VALID,23.091,VALID,24.0,VALID,1.261,
2018-08-07, 10:13:06,VALID,917.214,VALID,0.0,VALID,87.951,VALID,886.186,VALID,23.31,VALID,10.0,VALID,1.369,
2018-08-07, 10:14:06,VALID,917.216,VALID,0.0,VALID,86.989,VALID,914.661,VALID,23.425,VALID,12.0,VALID,1.248,
2018-08-07, 10:15:06,VALID,917.196,VALID,0.0,VALID,87.091,VALID,692.13,VALID,23.499,VALID,19.0,VALID,1.002,
2018-08-07, 10:16:06,VALID,917.202,VALID,0.0,VALID,86.729,VALID,875.328,VALID,23.49,VALID,31.0,VALID,1.011,
2018-08-07, 10:17:06,VALID,917.173,VALID,0.0,VALID,86.67,VALID,554.583,VALID,23.365,VALID,30.0,VALID,2.279,
2018-08-07, 10:18:06,VALID,917.162,VALID,0.0,VALID,85.775,VALID,497.274,VALID,23.11,VALID,29.0,VALID,1.876,
2018-08-07, 10:19:06,VALID,917.13,VALID,0.0,VALID,86.303,VALID,622.101,VALID,22.8,VALID,37.0,VALID,2.146,
2018-08-07, 10:20:06,VALID,917.094,VALID,0.0,VALID,86.451,VALID,454.66,VALID,22.51,VALID,33.0,VALID,1.964,
2018-08-07, 10:21:06,VALID,917.075,VALID,0.0,VALID,87.134,VALID,657.281,VALID,22.453,VALID,32.0,VALID,1.561,
2018-08-07, 10:22:06,VALID,917.046,VALID,0.0,VALID,88.343,VALID,766.899,VALID,22.636,VALID,20.0,VALID,1.02,
2018-08-07, 10:23:06,VALID,917.016,VALID,0.0,VALID,87.271,VALID,735.562,VALID,22.808,VALID,32.0,VALID,1.27,
2018-08-07, 10:24:06,VALID,916.988,VALID,0.0,VALID,85.244,VALID,925.877,VALID,22.744,VALID,34.0,VALID,0.829,
2018-08-07, 10:25:06,VALID,916.977,VALID,0.0,VALID,87.406,VALID,868.341,VALID,22.807,VALID,36.0,VALID,0.505,
2018-08-07, 10:26:06,VALID,916.958,VALID,0.0,VALID,87.306,VALID,920.045,VALID,23.205,VALID,15.0,VALID,0.877,
2018-08-07, 10:27:06,VALID,916.934,VALID,0.0,VALID,84.579,VALID,790.581,VALID,23.444,VALID,7.0,VALID,0.616,
2018-08-07, 10:28:06,VALID,916.897,VALID,0.0,VALID,85.577,VALID,901.41,VALID,23.591,VALID,10.0,VALID,0.203,
2018-08-07, 10:29:06,VALID,916.86,VALID,0.0,VALID,83.063,VALID,891.969,VALID,23.707,VALID,5.0,VALID,0.907,
2018-08-07, 10:30:06,VALID,916.836,VALID,0.0,VALID,83.511,VALID,852.566,VALID,23.755,VALID,14.0,VALID,0.429,
2018-08-07, 10:31:06,VALID,916.8,VALID,0.0,VALID,84.382,VALID,879.629,VALID,23.954,VALID,31.0,VALID,0.852,
2018-08-07, 10:32:06,VALID,916.759,VALID,0.0,VALID,83.076,VALID,658.053,VALID,24.029,VALID,43.0,VALID,1.495,
2018-08-07, 10:33:06,VALID,916.763,VALID,0.0,VALID,84.396,VALID,622.088,VALID,24.065,VALID,27.0,VALID,1.47,
2018-08-07, 10:34:06,VALID,916.769,VALID,0.0,VALID,83.186,VALID,809.701,VALID,24.168,VALID,32.0,VALID,1.29,
2018-08-07, 10:35:06,VALID,916.751,VALID,0.0,VALID,85.981,VALID,888.336,VALID,24.284,VALID,25.0,VALID,1.39,
2018-08-07, 10:36:06,VALID,916.78,VALID,0.0,VALID,83.131,VALID,627.523,VALID,24.533,VALID,25.0,VALID,1.388,